Time,TemperatureF,DewpointF,PressureIn,WindDirection,WindDirectionDegrees,WindSpeedMPH,WindSpeedGustMPH,Humidity,HourlyPrecipIn,Conditions,Clouds,dailyrainin,SoftwareType,DateUTC
2013-03-25 00:04:00,36.3,33.0,29.63,NNE,12,0.0,2.0,86,0.01,,,0.00,weatherlink.com 1.10,2013-03-25 04:04:00,
2013-03-25 00:19:00,36.2,32.0,29.62,ESE,113,0.0,3.0,86,0.01,,,0.00,weatherlink.com 1.10,2013-03-25 04:19:00,
2013-03-25 00:34:00,36.1,32.0,29.62,ESE,113,0.0,1.0,86,0.01,,,0.00,weatherlink.com 1.10,2013-03-25 04:34:00,
2013-03-25 00:49:00,36.0,32.0,29.63,East,79,0.0,1.0,86,0.01,,,0.00,weatherlink.com 1.10,2013-03-25 04:49:00,
2013-03-25 01:04:00,36.0,32.0,29.63,East,80,0.0,0.0,86,0.00,,,0.00,weatherlink.com 1.10,2013-03-25 05:04:00,
2013-03-25 01:19:00,36.0,32.0,29.64,East,80,0.0,0.0,86,0.00,,,0.00,weatherlink.com 1.10,2013-03-25 05:19:00,
2013-03-25 01:34:00,36.0,32.0,29.62,East,80,0.0,0.0,86,0.00,,,0.00,weatherlink.com 1.10,2013-03-25 05:34:00,
2013-03-25 01:49:00,35.9,32.0,29.62,East,80,0.0,0.0,86,0.01,,,0.01,weatherlink.com 1.10,2013-03-25 05:49:00,
2013-03-25 02:04:00,36.0,33.0,29.60,East,80,0.0,2.0,87,0.01,,,0.01,weatherlink.com 1.10,2013-03-25 06:04:00,
2013-03-25 02:19:00,35.8,32.0,29.60,East,80,0.0,0.0,87,0.01,,,0.01,weatherlink.com 1.10,2013-03-25 06:19:00,
2013-03-25 02:35:00,35.6,32.0,29.60,East,80,0.0,1.0,87,0.01,,,0.01,weatherlink.com 1.10,2013-03-25 06:35:00,
2013-03-25 02:49:00,35.6,32.0,29.60,East,80,0.0,0.0,87,0.00,,,0.01,weatherlink.com 1.10,2013-03-25 06:49:00,
2013-03-25 03:04:00,35.7,33.0,29.59,East,80,0.0,0.0,88,0.00,,,0.01,weatherlink.com 1.10,2013-03-25 07:04:00,
2013-03-25 03:19:00,35.6,32.0,29.58,East,80,0.0,1.0,88,0.01,,,0.02,weatherlink.com 1.10,2013-03-25 07:19:00,
2013-03-25 03:34:00,35.6,32.0,29.59,East,79,0.0,1.0,88,0.01,,,0.02,weatherlink.com 1.10,2013-03-25 07:34:00,
2013-03-25 03:49:00,35.6,32.0,29.60,East,80,0.0,0.0,88,0.01,,,0.02,weatherlink.com 1.10,2013-03-25 07:49:00,
2013-03-25 04:04:00,35.6,32.0,29.60,East,80,0.0,0.0,88,0.01,,,0.02,weatherlink.com 1.10,2013-03-25 08:04:00,
2013-03-25 04:20:00,35.7,33.0,29.60,East,80,0.0,0.0,88,0.00,,,0.02,weatherlink.com 1.10,2013-03-25 08:20:00,
2013-03-25 04:34:00,35.7,33.0,29.59,East,80,0.0,0.0,88,0.00,,,0.02,weatherlink.com 1.10,2013-03-25 08:34:00,
2013-03-25 04:49:00,35.8,33.0,29.60,East,80,0.0,0.0,88,0.00,,,0.02,weatherlink.com 1.10,2013-03-25 08:49:00,
2013-03-25 05:04:00,35.8,33.0,29.60,East,80,0.0,0.0,88,0.00,,,0.02,weatherlink.com 1.10,2013-03-25 09:04:00,
2013-03-25 05:19:00,35.7,33.0,29.60,East,80,0.0,0.0,88,0.00,,,0.02,weatherlink.com 1.10,2013-03-25 09:19:00,
2013-03-25 05:34:00,35.7,33.0,29.61,East,80,0.0,0.0,88,0.01,,,0.03,weatherlink.com 1.10,2013-03-25 09:34:00,
2013-03-25 05:49:00,35.7,33.0,29.60,ENE,68,0.0,2.0,88,0.01,,,0.03,weatherlink.com 1.10,2013-03-25 09:49:00,
2013-03-25 06:04:00,35.6,32.0,29.60,ENE,68,0.0,1.0,88,0.01,,,0.03,weatherlink.com 1.10,2013-03-25 10:04:00,
2013-03-25 06:19:00,35.5,32.0,29.60,ENE,68,0.0,0.0,88,0.01,,,0.03,weatherlink.com 1.10,2013-03-25 10:19:00,
2013-03-25 06:34:00,35.4,32.0,29.61,ENE,69,0.0,1.0,88,0.00,,,0.03,weatherlink.com 1.10,2013-03-25 10:34:00,
2013-03-25 06:49:00,35.2,32.0,29.61,ENE,68,0.0,0.0,88,0.00,,,0.03,weatherlink.com 1.10,2013-03-25 10:49:00,
2013-03-25 07:04:00,35.2,32.0,29.60,ENE,68,0.0,0.0,88,0.00,,,0.03,weatherlink.com 1.10,2013-03-25 11:04:00,
2013-03-25 07:19:00,35.2,32.0,29.60,ENE,69,0.0,0.0,88,0.01,,,0.04,weatherlink.com 1.10,2013-03-25 11:19:00,
2013-03-25 07:34:00,35.2,32.0,29.60,ENE,68,0.0,0.0,88,0.01,,,0.04,weatherlink.com 1.10,2013-03-25 11:34:00,
2013-03-25 07:49:00,35.3,32.0,29.60,ENE,68,0.0,0.0,88,0.01,,,0.04,weatherlink.com 1.10,2013-03-25 11:49:00,
2013-03-25 08:04:00,35.5,32.0,29.60,ENE,68,0.0,0.0,88,0.01,,,0.04,weatherlink.com 1.10,2013-03-25 12:04:00,
2013-03-25 08:19:00,35.7,33.0,29.60,ENE,68,0.0,0.0,88,0.00,,,0.04,weatherlink.com 1.10,2013-03-25 12:19:00,
2013-03-25 08:34:00,35.8,33.0,29.61,ENE,68,0.0,1.0,88,0.00,,,0.04,weatherlink.com 1.10,2013-03-25 12:34:00,
2013-03-25 08:49:00,35.9,33.0,29.62,ENE,67,0.0,1.0,88,0.00,,,0.04,weatherlink.com 1.10,2013-03-25 12:49:00,
2013-03-25 09:04:00,36.1,33.0,29.62,ENE,67,0.0,1.0,89,0.00,,,0.04,weatherlink.com 1.10,2013-03-25 13:04:00,
2013-03-25 09:19:00,36.4,33.0,29.62,ENE,68,0.0,1.0,88,0.00,,,0.04,weatherlink.com 1.10,2013-03-25 13:19:00,
2013-03-25 09:34:00,36.5,33.0,29.63,ENE,69,1.0,1.0,88,0.01,,,0.05,weatherlink.com 1.10,2013-03-25 13:34:00,
2013-03-25 09:49:00,36.8,34.0,29.62,ENE,72,1.0,2.0,89,0.01,,,0.05,weatherlink.com 1.10,2013-03-25 13:49:00,
2013-03-25 10:04:00,36.9,34.0,29.63,SSE,163,0.0,1.0,88,0.01,,,0.05,weatherlink.com 1.10,2013-03-25 14:04:00,
2013-03-25 10:19:00,37.2,34.0,29.63,WNW,284,1.0,2.0,88,0.01,,,0.05,weatherlink.com 1.10,2013-03-25 14:19:00,
2013-03-25 10:34:00,37.5,34.0,29.62,WSW,255,0.0,2.0,88,0.00,,,0.05,weatherlink.com 1.10,2013-03-25 14:34:00,
2013-03-25 10:49:00,38.2,35.0,29.63,WSW,245,0.0,3.0,88,0.00,,,0.05,weatherlink.com 1.10,2013-03-25 14:49:00,
2013-03-25 11:04:00,39.1,36.0,29.63,SW,219,1.0,2.0,87,0.00,,,0.05,weatherlink.com 1.10,2013-03-25 15:04:00,
2013-03-25 11:19:00,40.1,36.0,29.63,SSW,200,0.0,6.0,85,0.01,,,0.06,weatherlink.com 1.10,2013-03-25 15:19:00,
2013-03-25 11:34:00,40.9,36.0,29.63,SSW,199,1.0,5.0,83,0.01,,,0.06,weatherlink.com 1.10,2013-03-25 15:34:00,
2013-03-25 11:50:00,42.5,37.0,29.62,WSW,254,0.0,3.0,81,0.01,,,0.06,weatherlink.com 1.10,2013-03-25 15:50:00,
2013-03-25 12:05:00,43.4,36.0,29.62,West,279,0.0,4.0,76,0.01,,,0.06,weatherlink.com 1.10,2013-03-25 16:05:00,
2013-03-25 12:20:00,43.6,36.0,29.62,West,277,0.0,3.0,75,0.00,,,0.06,weatherlink.com 1.10,2013-03-25 16:20:00,
2013-03-25 12:35:00,44.0,37.0,29.62,SSW,208,2.0,5.0,75,0.00,,,0.06,weatherlink.com 1.10,2013-03-25 16:35:00,
2013-03-25 12:50:00,44.4,35.0,29.62,WSW,257,0.0,4.0,69,0.00,,,0.06,weatherlink.com 1.10,2013-03-25 16:50:00,
2013-03-25 13:05:00,45.2,34.0,29.61,WSW,252,1.0,6.0,65,0.00,,,0.06,weatherlink.com 1.10,2013-03-25 17:05:00,
2013-03-25 13:20:00,45.0,33.0,29.62,SW,229,1.0,2.0,64,0.00,,,0.06,weatherlink.com 1.10,2013-03-25 17:20:00,
2013-03-25 13:35:00,45.0,35.0,29.61,NNW,346,0.0,2.0,67,0.01,,,0.07,weatherlink.com 1.10,2013-03-25 17:35:00,
2013-03-25 13:50:00,45.5,33.0,29.62,NW,325,1.0,5.0,62,0.01,,,0.07,weatherlink.com 1.10,2013-03-25 17:50:00,
2013-03-25 14:05:00,46.0,32.0,29.62,SW,217,1.0,3.0,58,0.01,,,0.07,weatherlink.com 1.10,2013-03-25 18:05:00,
2013-03-25 14:20:00,45.7,31.0,29.63,WNW,287,3.0,4.0,57,0.01,,,0.07,weatherlink.com 1.10,2013-03-25 18:20:00,
2013-03-25 14:35:00,45.4,30.0,29.62,SW,236,0.0,6.0,55,0.00,,,0.07,weatherlink.com 1.10,2013-03-25 18:35:00,
2013-03-25 14:50:00,46.6,31.0,29.63,North,360,2.0,8.0,54,0.01,,,0.08,weatherlink.com 1.10,2013-03-25 18:50:00,
2013-03-25 15:05:00,46.5,30.0,29.63,WSW,252,2.0,8.0,52,0.01,,,0.08,weatherlink.com 1.10,2013-03-25 19:05:00,
2013-03-25 15:20:00,47.7,30.0,29.63,West,261,2.0,8.0,50,0.01,,,0.08,weatherlink.com 1.10,2013-03-25 19:20:00,
2013-03-25 15:35:00,49.6,30.0,29.62,SW,219,3.0,5.0,47,0.01,,,0.08,weatherlink.com 1.10,2013-03-25 19:35:00,
2013-03-25 15:50:00,49.0,27.0,29.63,WSW,252,2.0,6.0,43,0.00,,,0.08,weatherlink.com 1.10,2013-03-25 19:50:00,
2013-03-25 16:05:00,49.5,27.0,29.63,WSW,245,4.0,8.0,42,0.00,,,0.08,weatherlink.com 1.10,2013-03-25 20:05:00,
2013-03-25 16:20:00,47.9,26.0,29.63,West,275,3.0,7.0,43,0.00,,,0.08,weatherlink.com 1.10,2013-03-25 20:20:00,
2013-03-25 16:35:00,47.3,27.0,29.64,West,265,3.0,4.0,46,0.00,,,0.08,weatherlink.com 1.10,2013-03-25 20:35:00,
2013-03-25 16:50:00,47.5,27.0,29.65,North,360,7.0,9.0,45,0.01,,,0.09,weatherlink.com 1.10,2013-03-25 20:50:00,
2013-03-25 17:05:00,47.2,27.0,29.66,SW,224,0.0,7.0,46,0.01,,,0.09,weatherlink.com 1.10,2013-03-25 21:05:00,
2013-03-25 17:20:00,46.7,27.0,29.66,WSW,250,0.0,7.0,46,0.01,,,0.09,weatherlink.com 1.10,2013-03-25 21:20:00,
2013-03-25 17:35:00,46.4,26.0,29.66,SSW,203,1.0,6.0,46,0.01,,,0.09,weatherlink.com 1.10,2013-03-25 21:35:00,
2013-03-25 17:50:00,46.2,26.0,29.67,SSW,207,1.0,6.0,46,0.00,,,0.09,weatherlink.com 1.10,2013-03-25 21:50:00,
2013-03-25 18:05:00,46.5,26.0,29.67,WNW,296,4.0,7.0,45,0.00,,,0.09,weatherlink.com 1.10,2013-03-25 22:05:00,
2013-03-25 18:20:00,45.9,27.0,29.68,SW,229,1.0,5.0,47,0.01,,,0.10,weatherlink.com 1.10,2013-03-25 22:20:00,
2013-03-25 18:35:00,45.2,25.0,29.69,West,277,0.0,3.0,46,0.01,,,0.10,weatherlink.com 1.10,2013-03-25 22:35:00,
2013-03-25 18:50:00,44.7,26.0,29.70,SSW,206,0.0,6.0,48,0.01,,,0.10,weatherlink.com 1.10,2013-03-25 22:50:00,
2013-03-25 19:05:00,44.3,26.0,29.71,NNE,15,0.0,4.0,48,0.01,,,0.10,weatherlink.com 1.10,2013-03-25 23:05:00,
2013-03-25 19:20:00,43.6,25.0,29.72,West,269,0.0,3.0,48,0.00,,,0.10,weatherlink.com 1.10,2013-03-25 23:20:00,
2013-03-25 19:35:00,43.0,26.0,29.73,SW,218,0.0,5.0,51,0.00,,,0.10,weatherlink.com 1.10,2013-03-25 23:35:00,
2013-03-25 19:50:00,42.9,26.0,29.74,SW,222,0.0,3.0,51,0.00,,,0.10,weatherlink.com 1.10,2013-03-25 23:50:00,
2013-03-25 20:05:00,42.8,26.0,29.75,WSW,246,0.0,2.0,51,0.00,,,0.10,weatherlink.com 1.10,2013-03-26 00:05:00,
2013-03-25 20:20:00,42.3,26.0,29.75,North,360,1.0,2.0,52,0.00,,,0.10,weatherlink.com 1.10,2013-03-26 00:20:00,
2013-03-25 20:35:00,42.1,25.0,29.77,WSW,253,0.0,3.0,52,0.00,,,0.10,weatherlink.com 1.10,2013-03-26 00:35:00,
2013-03-25 20:50:00,41.7,26.0,29.77,WSW,237,0.0,2.0,54,0.00,,,0.10,weatherlink.com 1.10,2013-03-26 00:50:00,
2013-03-25 21:06:00,41.2,27.0,29.78,SW,236,0.0,1.0,58,0.01,,,0.11,weatherlink.com 1.10,2013-03-26 01:06:00,
2013-03-25 21:21:00,40.9,27.0,29.79,SW,216,0.0,2.0,58,0.01,,,0.11,weatherlink.com 1.10,2013-03-26 01:21:00,
2013-03-25 21:36:00,40.7,28.0,29.79,SW,217,0.0,1.0,61,0.01,,,0.11,weatherlink.com 1.10,2013-03-26 01:36:00,
2013-03-25 21:51:00,40.7,28.0,29.80,SW,215,0.0,1.0,61,0.01,,,0.11,weatherlink.com 1.10,2013-03-26 01:51:00,
2013-03-25 22:06:00,40.7,27.0,29.81,SW,216,0.0,1.0,58,0.00,,,0.11,weatherlink.com 1.10,2013-03-26 02:06:00,
2013-03-25 22:21:00,40.4,27.0,29.81,SW,216,0.0,1.0,59,0.00,,,0.11,weatherlink.com 1.10,2013-03-26 02:21:00,
2013-03-25 22:36:00,39.7,26.0,29.82,WSW,239,0.0,3.0,58,0.00,,,0.11,weatherlink.com 1.10,2013-03-26 02:36:00,
2013-03-25 22:51:00,39.4,27.0,29.82,WSW,255,1.0,2.0,61,0.00,,,0.11,weatherlink.com 1.10,2013-03-26 02:51:00,
2013-03-25 23:06:00,39.1,26.0,29.82,SSW,213,0.0,1.0,60,0.00,,,0.11,weatherlink.com 1.10,2013-03-26 03:06:00,
2013-03-25 23:51:00,38.5,25.0,29.84,ESE,105,0.0,2.0,59,0.01,,,0.12,weatherlink.com 1.10,2013-03-26 03:51:00,